WB2IFS-13 Weather Reports


time (UTC)temp
F
wind
direction
speed
knots
gust
knots
rain 1hr
in
rain 24hr
in
rain mn
in
humidity
%
barometer
mb
20260505024500 65 146 0.0 2.6 0.00 0.00 0.00 54 1012.0
20260505022959 65 145 0.9 3.5 0.00 0.00 0.00 55 1012.0
20260505021500 64 174 0.0 3.5 0.00 0.00 0.00 56 1012.0
20260505020001 65 127 0.0 0.9 0.00 0.00 0.00 55 1012.1
20260505014500 65 131 0.0 1.7 0.00 0.00 0.00 54 1011.9
20260505012959 66 115 0.0 0.9 0.00 0.00 0.00 54 1011.8
20260505011500 66 151 0.0 0.0 0.00 0.00 0.00 53 1011.8
20260505010002 67 175 0.0 1.7 0.00 0.00 0.00 51 1011.6
20260505004459 68 117 0.0 0.9 0.00 0.00 0.00 49 1011.4
20260505002959 69 123 0.0 1.7 0.00 0.00 0.00 47 1011.3
20260505001459 70 129 0.0 1.7 0.00 0.00 0.00 46 1011.4
20260505000002 71 146 0.9 2.6 0.00 0.00 0.00 44 1011.4
20260504234501 72 163 1.7 4.3 0.00 0.00 0.00 42 1011.1
20260504233001 72 195 0.9 3.5 0.00 0.00 0.00 42 1011.1
20260504231500 73 93 1.7 8.7 0.00 0.00 0.00 41 1011.0
20260504230002 74 72 2.6 8.7 0.00 0.00 0.00 40 1011.1
20260504223000 74 124 2.6 9.6 0.00 0.00 0.00 39 1011.1
20260504221459 75 359 2.6 8.7 0.00 0.00 0.00 37 1011.1
20260504215959 76 122 3.5 8.7 0.00 0.00 0.00 36 1011.1
20260504212959 78 124 1.7 5.2 0.00 0.00 0.00 34 1011.1
20260504211459 78 190 1.7 5.2 0.00 0.00 0.00 34 1011.2
20260504210001 78 111 2.6 5.2 0.00 0.00 0.00 32 1011.2
20260504204504 77 48 2.6 5.2 0.00 0.00 0.00 33 1011.1
20260504203000 78 131 2.6 7.0 0.00 0.00 0.00 33 1011.2
20260504201500 78 207 2.6 7.8 0.00 0.00 0.00 34 1011.3
20260504200001 78 71 2.6 6.1 0.00 0.00 0.00 34 1011.5
20260504194500 77 186 2.6 7.8 0.00 0.00 0.00 34 1011.6
20260504192959 77 177 2.6 7.8 0.00 0.00 0.00 34 1011.9
20260504191459 78 341 1.7 7.8 0.00 0.00 0.00 33 1012.1
20260504190002 78 180 1.7 4.3 0.00 0.00 0.00 35 1012.2
20260504184501 76 346 2.6 7.0 0.00 0.00 0.00 34 1012.5
20260504183000 75 358 2.6 6.1 0.00 0.00 0.00 36 1012.7
20260504181500 75 14 2.6 6.1 0.00 0.00 0.00 36 1013.1
20260504180001 75 132 1.7 6.1 0.00 0.00 0.00 37 1013.4
20260504174459 75 200 1.7 6.1 0.00 0.00 0.00 37 1013.4
20260504173000 74 95 2.6 7.8 0.00 0.00 0.00 37 1013.8
20260504171458 74 14 1.7 5.2 0.00 0.00 0.00 36 1013.8
20260504081459 50 168 0.0 1.7 0.00 0.00 0.00 70 1016.4
20260504050001 46 191 0.0 0.0 0.00 0.00 0.00 73 1016.5
20260504044500 46 191 0.0 0.0 0.00 0.00 0.00 72 1016.4
20260504043000 45 191 0.0 0.0 0.00 0.00 0.00 72 1016.5
20260504041459 45 191 0.0 0.0 0.00 0.00 0.00 71 1016.6
20260504040003 46 191 0.0 0.0 0.00 0.00 0.00 69 1016.7
20260504034459 46 191 0.0 0.0 0.00 0.00 0.00 68 1016.6
20260504033000 46 191 0.0 0.0 0.00 0.00 0.00 67 1016.5
20260504031459 47 191 0.0 0.0 0.00 0.00 0.00 67 1016.4
20260504030002 47 191 0.0 0.0 0.00 0.00 0.00 67 1016.4